Home   Weather   Khan Yunis   Past weeks

Flag for Palestinian Territories Past Weather in Khan Yunis, Gaza Strip, Palestinian Territories — Yesterday and Last 2 Weeks

Now
68 °F

Sunny.


Feels Like: 68 °F
Forecast: 60 / 69 °F
Wind: 9 mph from North

Location: El Arish

Current Time: Apr 23, 2017 at 11:13:47 am

Latest Report: Apr 23, 2017 at 10:00 am


Visibility: 10 mi

Pressure: 30.04 "Hg

Humidity: 64%

Dew Point: 55 °F

Location of Khan YunisLocation

Past Weather in Khan Yunis — Graph

°F

Khan Yunis Temperature Yesterday

Maximum temperature yesterday: 97 °F (at 1:00 pm)
Minimum temperature yesterday: 70 °F (at 10:00 pm)
Average temperature yesterday: 86 °F

High & Low Weather Summary for the Past Weeks

 TemperatureHumidityPressure
High97 °F (Apr 21, 1:00 pm)100% (Apr 15, 6:00 am)30.12 "Hg (Apr 15, 6:00 am)
Low50 °F (Apr 20, 6:00 am)12% (Apr 21, 1:00 pm)29.65 "Hg (Apr 22, 5:00 pm)
Average69 °F63%29.96 "Hg
* Reported Apr 8 8:00 am — Apr 23 8:00 am, Khan Yunis, Weather by CustomWeather, © 2017

Note: Actual official high and low records may vary slightly from our data, if they occured in-between our weather recording intervals... More about our weather records

Advertising

Khan Yunis Weather History for the Previous 24 Hours

Scroll right to see more
 ConditionsComfort  
Time TempWeatherWind HumidityBarometerVisibility
8:00 am
Sun, Apr 23
66 °FSunny.12 mph73%30.01 "Hg10 mi
7:00 am64 °FSunny.3 mph73%29.98 "Hg10 mi
6:00 am64 °FClear.7 mph73%29.92 "Hg10 mi
5:00 am64 °FClear.9 mph78%29.86 "Hg10 mi
4:00 am66 °FClear.8 mph78%29.83 "Hg10 mi
3:00 am66 °FClear.13 mph78%29.83 "Hg10 mi
2:00 am66 °FClear.7 mph68%29.77 "Hg10 mi
1:00 am68 °FClear.9 mph69%29.77 "Hg10 mi
12:00 am70 °FClear.10 mph73%29.77 "Hg10 mi
11:00 pm
Sat, Apr 22
72 °FClear.7 mph41%29.74 "Hg10 mi
10:00 pm70 °FClear.No wind46%29.71 "Hg10 mi
8:00 pm77 °FClear.No wind39%29.68 "Hg10 mi
7:00 pm82 °FSunny.No wind26%29.68 "Hg10 mi
6:00 pm90 °FSunny.3 mph15%29.68 "Hg10 mi
5:00 pm91 °FSunny.9 mph23%29.65 "Hg10 mi
4:00 pm93 °FSunny.7 mph21%29.68 "Hg10 mi
3:00 pm95 °FSunny.9 mph20%29.68 "Hg10 mi
2:00 pm97 °FSunny.8 mph19%29.71 "Hg10 mi
1:00 pm97 °FSunny.5 mph19%29.74 "Hg10 mi
Weather by CustomWeather, © 2017

See weather overviewHow to use our weather pages